Weather in Chesnokovka

Russia / Republic of Bashkortostan     54°36′43″N   55°56′15″E
temp.,
°C
wind,
m/s
gust,
m/s
humid.,
%
clouds,
%
prec.,
mm/h
press.,
hPa
HPBL,
m
28 february, sun
sun2823:00−9se61288100 0.6 1002335
02:00−8se5995100 0.9 1001337
05:00−8ese5795100 2.4 1000251
08:00−8ese4796100 1.1 1000214
11:00−6e3496100 2.1 1000223
14:00−4ene2293100 0.6 1001257
17:00−4nnw359699 0.9 1002303
20:00−8nw489594 0.4 1005197
1 march, mon
mon123:00−10nw479693 0.4 1008143
02:00−11nw469599 0.3 1010165
05:00−13nw3796100 0.6 1012220
08:00−14wnw3696100 0.4 1013230
11:00−13nw359398 0.5 1015352
14:00−12wnw3491100 0.1 1015455
17:00−13wnw4592100 0.3 1017419
20:00−18wnw239692 0.1 101825
2 march, tue
tue223:00−20wsw239982 0.1 101920
02:00−22sw239867 0.0 101821
05:00−23ssw339757 0.0 101829
08:00−22s48967 0.0 1016137
11:00−18s7119040 0.0 1014340
14:00−15s8139096 0.0 1010433
17:00−13s9159198 0.1 1008522
20:00−13ssw91591100 0.3 1007640
3 march, wed
wed323:00−11s81592100 0.7 1005594
02:00−9s81592100 0.3 1002529
05:00−6s71491100 0.5 1000500
08:00−4ssw61295100 0.3 998456
11:00−3ssw699298 0.6 998414
14:00−2sw579498 0.1 998528
17:00−2wnw699499 0.5 999612
20:00−6wnw51193100 0.2 1000367
4 march, thu
thu423:00−7wnw3696100 0.3 1003161
02:00−7w3596100 0.2 1003136
05:00−7nw3796100 0.7 1005208
08:00−9wnw3796100 0.3 1007166
11:00−10wnw489492 0.3 1008343
14:00−7w578999 0.0 1009534
17:00−7wsw488992 0.1 1010495
20:00−9sw5129075 0.0 1010375